User: anonymous   Login
Location: Home
(42.5358°N, 72.7383°W)
Time: 22:44:55
(UTC-05:00)
Language:

N. Korean satellite - Orbit

View from above orbital plane
View from above orbital plane
View from above satellite
View from above satellite

Ground track
Ground track

The orbit data is extracted from the following two-line orbital elements,

1 39026U 12072A   21334.71758798  .00005183  00000-0  16942-3 0  9999
2 39026  97.2567 323.7824 0035292 148.1524 212.1861 15.31552031498461
Epoch (UTC): 30 November 2021 17:13:19
Eccentricity: 0.0035292
inclination: 97.2567°
perigee height: 447 km
apogee height: 495 km
right ascension of ascending node: 323.7824°
argument of perigee: 148.1524°
revolutions per day: 15.31552031
mean anomaly at epoch: 212.1861°
orbit number at epoch: 49846

The dashed part of the orbit path shows where the satellite is in the earth's shadow,  

DLR